Miscellaneous Local Product
Issued by NWS Hastings, NE

Home | Current Version | Previous Version | Graphics & Text | Print | Product List | Glossary On
Versions: 1 2 3 4 5 6 7 8 9 10 11 12 13 14 15 16 17 18 19 20 21 22 23 24 25 26 27 28 29 30 31 32 33 34 35 36 37 38 39 40 41 42 43 44 45 46 47 48 49 50
000
AXUS43 KGID 262302
MISGRI

GID CWA HOURLY WEATHER ROUNDUP
NATIONAL WEATHER SERVICE HASTINGS NE
600 PM CDT SUN JUL 26 2015

NOTE: "FAIR" INDICATES FEW OR NO CLOUDS BELOW 12,000 FEET WITH NO
SIGNIFICANT WEATHER AND/OR OBSTRUCTIONS TO VISIBILITY.

...SOUTH CENTRAL NEBRASKA...

CITY           SKY/WX    TMP DP  RH WIND       PRES   REMARKS
GRAND ISLAND   SUNNY     88  77  69 E6        29.89F HX 100
HASTINGS       MOSUNNY   91  74  57 SE7       29.88F HX 100
KEARNEY        SUNNY     91  73  55 SE9       29.89S HX 100
ORD            SUNNY     91  73  55 S8        29.87S HX  99
YORK           PTSUNNY   86  77  74 SE6       29.89S HX  97
AURORA         SUNNY     87  78  75 SE7       29.89S HX 100
LEXINGTON      SUNNY     93  73  51 SE13      29.89S HX 101
HOLDREGE       SUNNY     91  70  49 S10       29.89F HX  96
HEBRON         SUNNY     91  73  56 S6        29.87S HX  99

...NEBRASKA PANHANDLE...

CITY           SKY/WX    TMP DP  RH WIND       PRES   REMARKS
CHADRON        SUNNY     95  59  30 S13G21    29.84F HX  94
ALLIANCE       MOSUNNY   75  54  47 S24G37    29.95R
SCOTTSBLUFF    MOSUNNY   85  60  42 SE23G33   29.94R
SIDNEY         LGT RAIN  71  60  68 MISG      30.06S

...WESTERN AND NORTH CENTRAL NEBRASKA...

CITY           SKY/WX    TMP DP  RH WIND       PRES   REMARKS
VALENTINE      CLOUDY    89  68  49 E15       29.88R HX  93
AINSWORTH      CLOUDY    85  73  66 E10       29.88F HX  91
ONEILL         PTSUNNY   87  71  59 E10       29.90R HX  93
BROKEN BOW     MOSUNNY   91  72  53 SE9       29.89S HX  98
IMPERIAL       CLOUDY    92  59  33 SE12      29.89F HX  91
NORTH PLATTE   PTSUNNY   88  73  61 SE9       29.88F HX  95
MCCOOK         SUNNY     94  69  44 SE15G21   29.87F HX  99

...EASTERN NEBRASKA...

CITY           SKY/WX    TMP DP  RH WIND       PRES   REMARKS
NORFOLK        SUNNY     88  73  61 SE7       29.88S HX  95
SO SIOUX CITY  SUNNY     87  74  64 E6        29.87F HX  95
TEKAMAH        SUNNY     90  77  65 SE5       29.86S HX 103
COLUMBUS       MOSUNNY   90  75  62 SE6       29.87S HX 100
ALBION         SUNNY     86  74  67 SE6       29.89S HX  94
OMAHA EPPLEY   MOSUNNY   89  76  65 E8        29.85F HX 100
OFFUTT AFB     PTSUNNY   89  77  68 E6        29.85F HX 101
MILLARD        MOSUNNY   89  77  68 SE6       29.86S HX 102
LINCOLN        MOSUNNY   92  77  61 SE7       29.86S HX 105
BEATRICE       MOSUNNY   90  76  63 SW3       29.87S HX 102
FALLS CITY     MOSUNNY   90  81  74 CALM      29.85S HX 109

...NORTHERN KANSAS...

CITY           SKY/WX    TMP DP  RH WIND       PRES   REMARKS
GOODLAND       MOSUNNY   92  63  38 SE16      29.90F HX  93
HILL CITY      SUNNY     95  70  44 SE13G21   29.86F HX 101
NORTON         CLEAR     93  66  40 SE10G17   29.87S HX  96
SMITH CENTER   SUNNY     91  72  52 SE13      29.87S HX  98
HAYS           MOSUNNY   93  70  46 S14       29.87S HX  99
RUSSELL        MOSUNNY   95  69  42 S14       29.85F HX 100
CONCORDIA      MOSUNNY   90  72  55 SE13      29.86F HX  97
SALINA         MOSUNNY   98  70  40 S9        29.84F HX 105
TOPEKA         SUNNY     93  74  53 S6        29.86F HX 103



USA.gov is the U.S. government's official web portal to all federal, state and local government web resources and services.